Index of /20260508/WXO-DD/model_caps/3km/12/027
Name Last modified Size Description
Parent Directory -
20260508T12Z_MSC_CAPS_AbsoluteVorticity_IsbL-0250_RLatLon0.03_PT027H.grib2 2026-05-08 18:15 1.1M
20260508T12Z_MSC_CAPS_AbsoluteVorticity_IsbL-0500_RLatLon0.03_PT027H.grib2 2026-05-08 18:15 1.1M
20260508T12Z_MSC_CAPS_AbsoluteVorticity_IsbL-0700_RLatLon0.03_PT027H.grib2 2026-05-08 18:15 1.0M
20260508T12Z_MSC_CAPS_AbsoluteVorticity_IsbL-0850_RLatLon0.03_PT027H.grib2 2026-05-08 18:15 1.3M
20260508T12Z_MSC_CAPS_AbsoluteVorticity_IsbL-1000_RLatLon0.03_PT027H.grib2 2026-05-08 18:15 1.4M
20260508T12Z_MSC_CAPS_AirDensity_AGL-120m_RLatLon0.03_PT027H.grib2 2026-05-08 18:15 1.4M
20260508T12Z_MSC_CAPS_AirDensity_AGL-40m_RLatLon0.03_PT027H.grib2 2026-05-08 18:15 1.5M
20260508T12Z_MSC_CAPS_AirDensity_AGL-80m_RLatLon0.03_PT027H.grib2 2026-05-08 18:15 1.5M
20260508T12Z_MSC_CAPS_AirTemp_AGL-120m_RLatLon0.03_PT027H.grib2 2026-05-08 18:15 1.8M
20260508T12Z_MSC_CAPS_AirTemp_AGL-2m_RLatLon0.03_PT027H.grib2 2026-05-08 18:15 2.1M
20260508T12Z_MSC_CAPS_AirTemp_AGL-40m_RLatLon0.03_PT027H.grib2 2026-05-08 18:15 1.9M
20260508T12Z_MSC_CAPS_AirTemp_AGL-80m_RLatLon0.03_PT027H.grib2 2026-05-08 18:15 1.8M
20260508T12Z_MSC_CAPS_AirTemp_IsbL-0050_RLatLon0.03_PT027H.grib2 2026-05-08 18:15 684K
20260508T12Z_MSC_CAPS_AirTemp_IsbL-0100_RLatLon0.03_PT027H.grib2 2026-05-08 18:15 786K
20260508T12Z_MSC_CAPS_AirTemp_IsbL-0150_RLatLon0.03_PT027H.grib2 2026-05-08 18:15 748K
20260508T12Z_MSC_CAPS_AirTemp_IsbL-0175_RLatLon0.03_PT027H.grib2 2026-05-08 18:15 777K
20260508T12Z_MSC_CAPS_AirTemp_IsbL-0200_RLatLon0.03_PT027H.grib2 2026-05-08 18:15 800K
20260508T12Z_MSC_CAPS_AirTemp_IsbL-0225_RLatLon0.03_PT027H.grib2 2026-05-08 18:15 803K
20260508T12Z_MSC_CAPS_AirTemp_IsbL-0250_RLatLon0.03_PT027H.grib2 2026-05-08 18:15 791K
20260508T12Z_MSC_CAPS_AirTemp_IsbL-0275_RLatLon0.03_PT027H.grib2 2026-05-08 18:15 782K
20260508T12Z_MSC_CAPS_AirTemp_IsbL-0300_RLatLon0.03_PT027H.grib2 2026-05-08 18:15 1.0M
20260508T12Z_MSC_CAPS_AirTemp_IsbL-0350_RLatLon0.03_PT027H.grib2 2026-05-08 18:15 752K
20260508T12Z_MSC_CAPS_AirTemp_IsbL-0400_RLatLon0.03_PT027H.grib2 2026-05-08 18:15 755K
20260508T12Z_MSC_CAPS_AirTemp_IsbL-0450_RLatLon0.03_PT027H.grib2 2026-05-08 18:15 772K
20260508T12Z_MSC_CAPS_AirTemp_IsbL-0500_RLatLon0.03_PT027H.grib2 2026-05-08 18:15 788K
20260508T12Z_MSC_CAPS_AirTemp_IsbL-0550_RLatLon0.03_PT027H.grib2 2026-05-08 18:15 803K
20260508T12Z_MSC_CAPS_AirTemp_IsbL-0600_RLatLon0.03_PT027H.grib2 2026-05-08 18:15 823K
20260508T12Z_MSC_CAPS_AirTemp_IsbL-0650_RLatLon0.03_PT027H.grib2 2026-05-08 18:15 851K
20260508T12Z_MSC_CAPS_AirTemp_IsbL-0700_RLatLon0.03_PT027H.grib2 2026-05-08 18:15 881K
20260508T12Z_MSC_CAPS_AirTemp_IsbL-0750_RLatLon0.03_PT027H.grib2 2026-05-08 18:15 921K
20260508T12Z_MSC_CAPS_AirTemp_IsbL-0800_RLatLon0.03_PT027H.grib2 2026-05-08 18:15 952K
20260508T12Z_MSC_CAPS_AirTemp_IsbL-0850_RLatLon0.03_PT027H.grib2 2026-05-08 18:15 1.0M
20260508T12Z_MSC_CAPS_AirTemp_IsbL-0875_RLatLon0.03_PT027H.grib2 2026-05-08 18:15 1.0M
20260508T12Z_MSC_CAPS_AirTemp_IsbL-0900_RLatLon0.03_PT027H.grib2 2026-05-08 18:15 1.0M
20260508T12Z_MSC_CAPS_AirTemp_IsbL-0925_RLatLon0.03_PT027H.grib2 2026-05-08 18:15 1.1M
20260508T12Z_MSC_CAPS_AirTemp_IsbL-0950_RLatLon0.03_PT027H.grib2 2026-05-08 18:15 1.1M
20260508T12Z_MSC_CAPS_AirTemp_IsbL-0970_RLatLon0.03_PT027H.grib2 2026-05-08 18:15 1.1M
20260508T12Z_MSC_CAPS_AirTemp_IsbL-0985_RLatLon0.03_PT027H.grib2 2026-05-08 18:15 1.1M
20260508T12Z_MSC_CAPS_AirTemp_IsbL-1000_RLatLon0.03_PT027H.grib2 2026-05-08 18:15 1.1M
20260508T12Z_MSC_CAPS_AirTemp_IsbL-1015_RLatLon0.03_PT027H.grib2 2026-05-08 18:15 1.1M
20260508T12Z_MSC_CAPS_Albedo_Sfc_RLatLon0.03_PT027H.grib2 2026-05-08 18:15 2.7M
20260508T12Z_MSC_CAPS_CAPE_Sfc_RLatLon0.03_PT027H.grib2 2026-05-08 18:15 173K
20260508T12Z_MSC_CAPS_CloudWater_EAtm_RLatLon0.03_PT027H.grib2 2026-05-08 18:15 1.6M
20260508T12Z_MSC_CAPS_ConvectivePrecip-Accum_Sfc_RLatLon0.03_PT027H.grib2 2026-05-08 18:15 4.5M
20260508T12Z_MSC_CAPS_DewPointDepression_AGL-120m_RLatLon0.03_PT027H.grib2 2026-05-08 18:15 2.0M
20260508T12Z_MSC_CAPS_DewPointDepression_AGL-2m_RLatLon0.03_PT027H.grib2 2026-05-08 18:15 2.1M
20260508T12Z_MSC_CAPS_DewPointDepression_AGL-40m_RLatLon0.03_PT027H.grib2 2026-05-08 18:15 2.1M
20260508T12Z_MSC_CAPS_DewPointDepression_AGL-80m_RLatLon0.03_PT027H.grib2 2026-05-08 18:15 2.1M
20260508T12Z_MSC_CAPS_DewPointDepression_IsbL-0050_RLatLon0.03_PT027H.grib2 2026-05-08 18:15 747
20260508T12Z_MSC_CAPS_DewPointDepression_IsbL-0100_RLatLon0.03_PT027H.grib2 2026-05-08 18:15 74K
20260508T12Z_MSC_CAPS_DewPointDepression_IsbL-0150_RLatLon0.03_PT027H.grib2 2026-05-08 18:15 76K
20260508T12Z_MSC_CAPS_DewPointDepression_IsbL-0175_RLatLon0.03_PT027H.grib2 2026-05-08 18:15 184K
20260508T12Z_MSC_CAPS_DewPointDepression_IsbL-0200_RLatLon0.03_PT027H.grib2 2026-05-08 18:15 397K
20260508T12Z_MSC_CAPS_DewPointDepression_IsbL-0225_RLatLon0.03_PT027H.grib2 2026-05-08 18:15 622K
20260508T12Z_MSC_CAPS_DewPointDepression_IsbL-0250_RLatLon0.03_PT027H.grib2 2026-05-08 18:15 879K
20260508T12Z_MSC_CAPS_DewPointDepression_IsbL-0275_RLatLon0.03_PT027H.grib2 2026-05-08 18:15 1.0M
20260508T12Z_MSC_CAPS_DewPointDepression_IsbL-0300_RLatLon0.03_PT027H.grib2 2026-05-08 18:15 1.0M
20260508T12Z_MSC_CAPS_DewPointDepression_IsbL-0350_RLatLon0.03_PT027H.grib2 2026-05-08 18:15 1.1M
20260508T12Z_MSC_CAPS_DewPointDepression_IsbL-0400_RLatLon0.03_PT027H.grib2 2026-05-08 18:15 1.1M
20260508T12Z_MSC_CAPS_DewPointDepression_IsbL-0450_RLatLon0.03_PT027H.grib2 2026-05-08 18:15 1.2M
20260508T12Z_MSC_CAPS_DewPointDepression_IsbL-0500_RLatLon0.03_PT027H.grib2 2026-05-08 18:15 1.2M
20260508T12Z_MSC_CAPS_DewPointDepression_IsbL-0550_RLatLon0.03_PT027H.grib2 2026-05-08 18:15 1.2M
20260508T12Z_MSC_CAPS_DewPointDepression_IsbL-0600_RLatLon0.03_PT027H.grib2 2026-05-08 18:15 1.2M
20260508T12Z_MSC_CAPS_DewPointDepression_IsbL-0650_RLatLon0.03_PT027H.grib2 2026-05-08 18:15 1.3M
20260508T12Z_MSC_CAPS_DewPointDepression_IsbL-0700_RLatLon0.03_PT027H.grib2 2026-05-08 18:15 1.3M
20260508T12Z_MSC_CAPS_DewPointDepression_IsbL-0750_RLatLon0.03_PT027H.grib2 2026-05-08 18:15 1.3M
20260508T12Z_MSC_CAPS_DewPointDepression_IsbL-0800_RLatLon0.03_PT027H.grib2 2026-05-08 18:15 1.3M
20260508T12Z_MSC_CAPS_DewPointDepression_IsbL-0850_RLatLon0.03_PT027H.grib2 2026-05-08 18:15 1.3M
20260508T12Z_MSC_CAPS_DewPointDepression_IsbL-0875_RLatLon0.03_PT027H.grib2 2026-05-08 18:15 1.3M
20260508T12Z_MSC_CAPS_DewPointDepression_IsbL-0900_RLatLon0.03_PT027H.grib2 2026-05-08 18:15 1.3M
20260508T12Z_MSC_CAPS_DewPointDepression_IsbL-0925_RLatLon0.03_PT027H.grib2 2026-05-08 18:15 1.3M
20260508T12Z_MSC_CAPS_DewPointDepression_IsbL-0950_RLatLon0.03_PT027H.grib2 2026-05-08 18:15 1.3M
20260508T12Z_MSC_CAPS_DewPointDepression_IsbL-0970_RLatLon0.03_PT027H.grib2 2026-05-08 18:15 1.3M
20260508T12Z_MSC_CAPS_DewPointDepression_IsbL-0985_RLatLon0.03_PT027H.grib2 2026-05-08 18:15 1.3M
20260508T12Z_MSC_CAPS_DewPointDepression_IsbL-1000_RLatLon0.03_PT027H.grib2 2026-05-08 18:15 1.3M
20260508T12Z_MSC_CAPS_DewPointDepression_IsbL-1015_RLatLon0.03_PT027H.grib2 2026-05-08 18:15 1.3M
20260508T12Z_MSC_CAPS_DewPoint_AGL-120m_RLatLon0.03_PT027H.grib2 2026-05-08 18:15 3.6M
20260508T12Z_MSC_CAPS_DewPoint_AGL-2m_RLatLon0.03_PT027H.grib2 2026-05-08 18:15 2.2M
20260508T12Z_MSC_CAPS_DewPoint_AGL-40m_RLatLon0.03_PT027H.grib2 2026-05-08 18:15 3.7M
20260508T12Z_MSC_CAPS_DewPoint_AGL-80m_RLatLon0.03_PT027H.grib2 2026-05-08 18:15 3.7M
20260508T12Z_MSC_CAPS_DownwardLongwaveRadiationFlux-Accum_Sfc_RLatLon0.03_PT027H.grib2 2026-05-08 18:15 2.4M
20260508T12Z_MSC_CAPS_DownwardShortwaveRadiationFlux-Accum_NTAtm_RLatLon0.03_PT027H.grib2 2026-05-08 18:15 440K
20260508T12Z_MSC_CAPS_DownwardShortwaveRadiationFlux-Accum_Sfc_RLatLon0.03_PT027H.grib2 2026-05-08 18:15 2.9M
20260508T12Z_MSC_CAPS_FreezingRain-Accum_Sfc_RLatLon0.03_PT027H.grib2 2026-05-08 18:15 739K
20260508T12Z_MSC_CAPS_GeopotentialHeight_IsbL-0050_RLatLon0.03_PT027H.grib2 2026-05-08 18:15 633K
20260508T12Z_MSC_CAPS_GeopotentialHeight_IsbL-0100_RLatLon0.03_PT027H.grib2 2026-05-08 18:15 816K
20260508T12Z_MSC_CAPS_GeopotentialHeight_IsbL-0150_RLatLon0.03_PT027H.grib2 2026-05-08 18:15 601K
20260508T12Z_MSC_CAPS_GeopotentialHeight_IsbL-0175_RLatLon0.03_PT027H.grib2 2026-05-08 18:15 718K
20260508T12Z_MSC_CAPS_GeopotentialHeight_IsbL-0200_RLatLon0.03_PT027H.grib2 2026-05-08 18:15 736K
20260508T12Z_MSC_CAPS_GeopotentialHeight_IsbL-0225_RLatLon0.03_PT027H.grib2 2026-05-08 18:15 758K
20260508T12Z_MSC_CAPS_GeopotentialHeight_IsbL-0250_RLatLon0.03_PT027H.grib2 2026-05-08 18:15 770K
20260508T12Z_MSC_CAPS_GeopotentialHeight_IsbL-0275_RLatLon0.03_PT027H.grib2 2026-05-08 18:15 780K
20260508T12Z_MSC_CAPS_GeopotentialHeight_IsbL-0300_RLatLon0.03_PT027H.grib2 2026-05-08 18:15 785K
20260508T12Z_MSC_CAPS_GeopotentialHeight_IsbL-0350_RLatLon0.03_PT027H.grib2 2026-05-08 18:15 785K
20260508T12Z_MSC_CAPS_GeopotentialHeight_IsbL-0400_RLatLon0.03_PT027H.grib2 2026-05-08 18:15 780K
20260508T12Z_MSC_CAPS_GeopotentialHeight_IsbL-0450_RLatLon0.03_PT027H.grib2 2026-05-08 18:15 771K
20260508T12Z_MSC_CAPS_GeopotentialHeight_IsbL-0500_RLatLon0.03_PT027H.grib2 2026-05-08 18:15 765K
20260508T12Z_MSC_CAPS_GeopotentialHeight_IsbL-0550_RLatLon0.03_PT027H.grib2 2026-05-08 18:15 760K
20260508T12Z_MSC_CAPS_GeopotentialHeight_IsbL-0600_RLatLon0.03_PT027H.grib2 2026-05-08 18:15 756K
20260508T12Z_MSC_CAPS_GeopotentialHeight_IsbL-0650_RLatLon0.03_PT027H.grib2 2026-05-08 18:15 642K
20260508T12Z_MSC_CAPS_GeopotentialHeight_IsbL-0700_RLatLon0.03_PT027H.grib2 2026-05-08 18:15 642K
20260508T12Z_MSC_CAPS_GeopotentialHeight_IsbL-0750_RLatLon0.03_PT027H.grib2 2026-05-08 18:15 640K
20260508T12Z_MSC_CAPS_GeopotentialHeight_IsbL-0800_RLatLon0.03_PT027H.grib2 2026-05-08 18:15 824K
20260508T12Z_MSC_CAPS_GeopotentialHeight_IsbL-0850_RLatLon0.03_PT027H.grib2 2026-05-08 18:15 832K
20260508T12Z_MSC_CAPS_GeopotentialHeight_IsbL-0875_RLatLon0.03_PT027H.grib2 2026-05-08 18:15 838K
20260508T12Z_MSC_CAPS_GeopotentialHeight_IsbL-0900_RLatLon0.03_PT027H.grib2 2026-05-08 18:15 846K
20260508T12Z_MSC_CAPS_GeopotentialHeight_IsbL-0925_RLatLon0.03_PT027H.grib2 2026-05-08 18:15 854K
20260508T12Z_MSC_CAPS_GeopotentialHeight_IsbL-0950_RLatLon0.03_PT027H.grib2 2026-05-08 18:15 853K
20260508T12Z_MSC_CAPS_GeopotentialHeight_IsbL-0970_RLatLon0.03_PT027H.grib2 2026-05-08 18:15 869K
20260508T12Z_MSC_CAPS_GeopotentialHeight_IsbL-0985_RLatLon0.03_PT027H.grib2 2026-05-08 18:15 877K
20260508T12Z_MSC_CAPS_GeopotentialHeight_IsbL-1000_RLatLon0.03_PT027H.grib2 2026-05-08 18:15 887K
20260508T12Z_MSC_CAPS_GeopotentialHeight_IsbL-1015_RLatLon0.03_PT027H.grib2 2026-05-08 18:15 898K
20260508T12Z_MSC_CAPS_GeopotentialHeight_Sfc_RLatLon0.03_PT027H.grib2 2026-05-08 18:15 1.0M
20260508T12Z_MSC_CAPS_IcePellets-Accum_Sfc_RLatLon0.03_PT027H.grib2 2026-05-08 18:15 31K
20260508T12Z_MSC_CAPS_LatentHeatNetFlux_Sfc_RLatLon0.03_PT027H.grib2 2026-05-08 18:15 2.0M
20260508T12Z_MSC_CAPS_LiftedIndex-MU-VT_IsbL-0500_RLatLon0.03_PT027H.grib2 2026-05-08 18:15 3.4M
20260508T12Z_MSC_CAPS_MixedLayerThickness_Sfc_RLatLon0.03_PT027H.nc 2026-05-08 18:12 16M
20260508T12Z_MSC_CAPS_NetLongwaveRadiationFlux-Accum_Sfc_RLatLon0.03_PT027H.grib2 2026-05-08 18:15 3.1M
20260508T12Z_MSC_CAPS_NetShortwaveRadiationFlux-Accum_Sfc_RLatLon0.03_PT027H.grib2 2026-05-08 18:15 2.8M
20260508T12Z_MSC_CAPS_PlanetaryBoundaryLayerHeight_Sfc_RLatLon0.03_PT027H.grib2 2026-05-08 18:15 3.1M
20260508T12Z_MSC_CAPS_Precip-Accum_Sfc_RLatLon0.03_PT027H.grib2 2026-05-08 18:15 5.0M
20260508T12Z_MSC_CAPS_PrecipRate_Sfc_RLatLon0.03_PT027H.grib2 2026-05-08 18:15 645K
20260508T12Z_MSC_CAPS_PrecipType-Instant_Sfc_RLatLon0.03_PT027H.grib2 2026-05-08 18:15 2.1M
20260508T12Z_MSC_CAPS_Pressure_MSL_RLatLon0.03_PT027H.grib2 2026-05-08 18:15 769K
20260508T12Z_MSC_CAPS_Pressure_Sfc_RLatLon0.03_PT027H.grib2 2026-05-08 18:15 1.3M
20260508T12Z_MSC_CAPS_RadiativeTemp_Sfc_RLatLon0.03_PT027H.grib2 2026-05-08 18:15 2.0M
20260508T12Z_MSC_CAPS_Rain-Accum_Sfc_RLatLon0.03_PT027H.grib2 2026-05-08 18:15 2.7M
20260508T12Z_MSC_CAPS_RelativeHumidity_AGL-120m_RLatLon0.03_PT027H.grib2 2026-05-08 18:15 2.8M
20260508T12Z_MSC_CAPS_RelativeHumidity_AGL-2m_RLatLon0.03_PT027H.grib2 2026-05-08 18:15 2.8M
20260508T12Z_MSC_CAPS_RelativeHumidity_AGL-40m_RLatLon0.03_PT027H.grib2 2026-05-08 18:15 2.8M
20260508T12Z_MSC_CAPS_RelativeHumidity_AGL-80m_RLatLon0.03_PT027H.grib2 2026-05-08 18:15 2.8M
20260508T12Z_MSC_CAPS_RelativeHumidity_IsbL-0050_RLatLon0.03_PT027H.grib2 2026-05-08 18:15 955K
20260508T12Z_MSC_CAPS_RelativeHumidity_IsbL-0100_RLatLon0.03_PT027H.grib2 2026-05-08 18:15 1.1M
20260508T12Z_MSC_CAPS_RelativeHumidity_IsbL-0150_RLatLon0.03_PT027H.grib2 2026-05-08 18:15 335K
20260508T12Z_MSC_CAPS_RelativeHumidity_IsbL-0175_RLatLon0.03_PT027H.grib2 2026-05-08 18:15 467K
20260508T12Z_MSC_CAPS_RelativeHumidity_IsbL-0200_RLatLon0.03_PT027H.grib2 2026-05-08 18:15 656K
20260508T12Z_MSC_CAPS_RelativeHumidity_IsbL-0225_RLatLon0.03_PT027H.grib2 2026-05-08 18:15 909K
20260508T12Z_MSC_CAPS_RelativeHumidity_IsbL-0250_RLatLon0.03_PT027H.grib2 2026-05-08 18:15 1.1M
20260508T12Z_MSC_CAPS_RelativeHumidity_IsbL-0275_RLatLon0.03_PT027H.grib2 2026-05-08 18:15 1.4M
20260508T12Z_MSC_CAPS_RelativeHumidity_IsbL-0300_RLatLon0.03_PT027H.grib2 2026-05-08 18:15 1.7M
20260508T12Z_MSC_CAPS_RelativeHumidity_IsbL-0350_RLatLon0.03_PT027H.grib2 2026-05-08 18:15 1.9M
20260508T12Z_MSC_CAPS_RelativeHumidity_IsbL-0400_RLatLon0.03_PT027H.grib2 2026-05-08 18:15 2.1M
20260508T12Z_MSC_CAPS_RelativeHumidity_IsbL-0450_RLatLon0.03_PT027H.grib2 2026-05-08 18:15 2.0M
20260508T12Z_MSC_CAPS_RelativeHumidity_IsbL-0500_RLatLon0.03_PT027H.grib2 2026-05-08 18:15 2.1M
20260508T12Z_MSC_CAPS_RelativeHumidity_IsbL-0550_RLatLon0.03_PT027H.grib2 2026-05-08 18:15 2.1M
20260508T12Z_MSC_CAPS_RelativeHumidity_IsbL-0600_RLatLon0.03_PT027H.grib2 2026-05-08 18:15 2.2M
20260508T12Z_MSC_CAPS_RelativeHumidity_IsbL-0650_RLatLon0.03_PT027H.grib2 2026-05-08 18:15 2.2M
20260508T12Z_MSC_CAPS_RelativeHumidity_IsbL-0700_RLatLon0.03_PT027H.grib2 2026-05-08 18:15 2.3M
20260508T12Z_MSC_CAPS_RelativeHumidity_IsbL-0750_RLatLon0.03_PT027H.grib2 2026-05-08 18:15 2.3M
20260508T12Z_MSC_CAPS_RelativeHumidity_IsbL-0800_RLatLon0.03_PT027H.grib2 2026-05-08 18:15 2.4M
20260508T12Z_MSC_CAPS_RelativeHumidity_IsbL-0850_RLatLon0.03_PT027H.grib2 2026-05-08 18:15 2.5M
20260508T12Z_MSC_CAPS_RelativeHumidity_IsbL-0875_RLatLon0.03_PT027H.grib2 2026-05-08 18:15 2.6M
20260508T12Z_MSC_CAPS_RelativeHumidity_IsbL-0900_RLatLon0.03_PT027H.grib2 2026-05-08 18:15 2.6M
20260508T12Z_MSC_CAPS_RelativeHumidity_IsbL-0925_RLatLon0.03_PT027H.grib2 2026-05-08 18:15 2.6M
20260508T12Z_MSC_CAPS_RelativeHumidity_IsbL-0950_RLatLon0.03_PT027H.grib2 2026-05-08 18:15 2.7M
20260508T12Z_MSC_CAPS_RelativeHumidity_IsbL-0970_RLatLon0.03_PT027H.grib2 2026-05-08 18:15 2.7M
20260508T12Z_MSC_CAPS_RelativeHumidity_IsbL-0985_RLatLon0.03_PT027H.grib2 2026-05-08 18:15 2.7M
20260508T12Z_MSC_CAPS_RelativeHumidity_IsbL-1000_RLatLon0.03_PT027H.grib2 2026-05-08 18:15 2.8M
20260508T12Z_MSC_CAPS_RelativeHumidity_IsbL-1015_RLatLon0.03_PT027H.grib2 2026-05-08 18:15 2.8M
20260508T12Z_MSC_CAPS_Runoff-Accum_Sfc_RLatLon0.03_PT027H.grib2 2026-05-08 18:15 294K
20260508T12Z_MSC_CAPS_SeaIceAreaFraction_Sfc_RLatLon0.03_PT027H.nc 2026-05-08 18:12 15M
20260508T12Z_MSC_CAPS_SeaIceCompressiveStrength_Sfc_RLatLon0.03_PT027H.nc 2026-05-08 18:12 15M
20260508T12Z_MSC_CAPS_SeaIceDivergence_Sfc_RLatLon0.03_PT027H.nc 2026-05-08 18:12 15M
20260508T12Z_MSC_CAPS_SeaIceInternalPressure_Sfc_RLatLon0.03_PT027H.nc 2026-05-08 18:12 15M
20260508T12Z_MSC_CAPS_SeaIceShear_Sfc_RLatLon0.03_PT027H.nc 2026-05-08 18:12 15M
20260508T12Z_MSC_CAPS_SeaIceSnowTemp_Sfc_RLatLon0.03_PT027H.nc 2026-05-08 18:12 14M
20260508T12Z_MSC_CAPS_SeaIceSnowVolume_Sfc_RLatLon0.03_PT027H.nc 2026-05-08 18:12 15M
20260508T12Z_MSC_CAPS_SeaIceVelocityX_Sfc_RLatLon0.03_PT027H.nc 2026-05-08 18:12 15M
20260508T12Z_MSC_CAPS_SeaIceVelocityY_Sfc_RLatLon0.03_PT027H.nc 2026-05-08 18:12 15M
20260508T12Z_MSC_CAPS_SeaIceVolume_Sfc_RLatLon0.03_PT027H.nc 2026-05-08 18:12 15M
20260508T12Z_MSC_CAPS_SeaSurfaceHeight_Sfc_RLatLon0.03_PT027H.nc 2026-05-08 18:12 16M
20260508T12Z_MSC_CAPS_SeaWaterSalinity_DBS-0.5m_RLatLon0.03_PT027H.nc 2026-05-08 18:12 16M
20260508T12Z_MSC_CAPS_SeaWaterSalinity_DBS-all_RLatLon0.03_PT027H.nc 2026-05-08 18:12 107M
20260508T12Z_MSC_CAPS_SeaWaterTemp_DBS-0.5m_RLatLon0.03_PT027H.nc 2026-05-08 18:12 15M
20260508T12Z_MSC_CAPS_SeaWaterTemp_DBS-all_RLatLon0.03_PT027H.nc 2026-05-08 18:12 88M
20260508T12Z_MSC_CAPS_SeaWaterVelocityX_DBS-0.5m_RLatLon0.03_PT027H.nc 2026-05-08 18:12 17M
20260508T12Z_MSC_CAPS_SeaWaterVelocityX_DBS-all_RLatLon0.03_PT027H.nc 2026-05-08 18:12 211M
20260508T12Z_MSC_CAPS_SeaWaterVelocityY_DBS-0.5m_RLatLon0.03_PT027H.nc 2026-05-08 18:12 17M
20260508T12Z_MSC_CAPS_SeaWaterVelocityY_DBS-all_RLatLon0.03_PT027H.nc 2026-05-08 18:12 217M
20260508T12Z_MSC_CAPS_SensibleHeatNetFlux_Sfc_RLatLon0.03_PT027H.grib2 2026-05-08 18:15 2.2M
20260508T12Z_MSC_CAPS_ShowalterIndex_IsbL-0500_RLatLon0.03_PT027H.grib2 2026-05-08 18:15 4.3M
20260508T12Z_MSC_CAPS_Snow-Accum_Sfc_RLatLon0.03_PT027H.grib2 2026-05-08 18:15 3.6M
20260508T12Z_MSC_CAPS_SnowDensity_Sfc_RLatLon0.03_PT027H.grib2 2026-05-08 18:15 1.3M
20260508T12Z_MSC_CAPS_SnowDepthWaterEquivalent_Sfc_RLatLon0.03_PT027H.grib2 2026-05-08 18:15 639K
20260508T12Z_MSC_CAPS_SnowDepth_Sfc_RLatLon0.03_PT027H.grib2 2026-05-08 18:15 1.1M
20260508T12Z_MSC_CAPS_SoilTemp_DBS-0to10cm_RLatLon0.03_PT027H.grib2 2026-05-08 18:15 1.6M
20260508T12Z_MSC_CAPS_SoilTemp_Sfc_RLatLon0.03_PT027H.grib2 2026-05-08 18:15 1.8M
20260508T12Z_MSC_CAPS_SoilVolumetricIceContent_Sfc_RLatLon0.03_PT027H.grib2 2026-05-08 18:15 1.3M
20260508T12Z_MSC_CAPS_SoilVolumetricWaterContent_DBS-0to10cm_RLatLon0.03_PT027H.grib2 2026-05-08 18:15 1.4M
20260508T12Z_MSC_CAPS_SoilVolumetricWaterContent_DBS-0to1cm_RLatLon0.03_PT027H.grib2 2026-05-08 18:15 1.8M
20260508T12Z_MSC_CAPS_SpecificHumidity_AGL-120m_RLatLon0.03_PT027H.grib2 2026-05-08 18:15 1.8M
20260508T12Z_MSC_CAPS_SpecificHumidity_AGL-2m_RLatLon0.03_PT027H.grib2 2026-05-08 18:15 2.1M
20260508T12Z_MSC_CAPS_SpecificHumidity_AGL-40m_RLatLon0.03_PT027H.grib2 2026-05-08 18:15 1.9M
20260508T12Z_MSC_CAPS_SpecificHumidity_AGL-80m_RLatLon0.03_PT027H.grib2 2026-05-08 18:15 1.9M
20260508T12Z_MSC_CAPS_SpecificHumidity_IsbL-0050_RLatLon0.03_PT027H.grib2 2026-05-08 18:15 905K
20260508T12Z_MSC_CAPS_SpecificHumidity_IsbL-0100_RLatLon0.03_PT027H.grib2 2026-05-08 18:15 1.1M
20260508T12Z_MSC_CAPS_SpecificHumidity_IsbL-0150_RLatLon0.03_PT027H.grib2 2026-05-08 18:15 755K
20260508T12Z_MSC_CAPS_SpecificHumidity_IsbL-0175_RLatLon0.03_PT027H.grib2 2026-05-08 18:15 1.0M
20260508T12Z_MSC_CAPS_SpecificHumidity_IsbL-0200_RLatLon0.03_PT027H.grib2 2026-05-08 18:15 908K
20260508T12Z_MSC_CAPS_SpecificHumidity_IsbL-0225_RLatLon0.03_PT027H.grib2 2026-05-08 18:15 885K
20260508T12Z_MSC_CAPS_SpecificHumidity_IsbL-0250_RLatLon0.03_PT027H.grib2 2026-05-08 18:15 1.1M
20260508T12Z_MSC_CAPS_SpecificHumidity_IsbL-0275_RLatLon0.03_PT027H.grib2 2026-05-08 18:15 1.1M
20260508T12Z_MSC_CAPS_SpecificHumidity_IsbL-0300_RLatLon0.03_PT027H.grib2 2026-05-08 18:15 1.1M
20260508T12Z_MSC_CAPS_SpecificHumidity_IsbL-0350_RLatLon0.03_PT027H.grib2 2026-05-08 18:15 1.0M
20260508T12Z_MSC_CAPS_SpecificHumidity_IsbL-0400_RLatLon0.03_PT027H.grib2 2026-05-08 18:15 1.0M
20260508T12Z_MSC_CAPS_SpecificHumidity_IsbL-0450_RLatLon0.03_PT027H.grib2 2026-05-08 18:15 1.2M
20260508T12Z_MSC_CAPS_SpecificHumidity_IsbL-0500_RLatLon0.03_PT027H.grib2 2026-05-08 18:15 1.1M
20260508T12Z_MSC_CAPS_SpecificHumidity_IsbL-0550_RLatLon0.03_PT027H.grib2 2026-05-08 18:15 1.3M
20260508T12Z_MSC_CAPS_SpecificHumidity_IsbL-0600_RLatLon0.03_PT027H.grib2 2026-05-08 18:15 1.4M
20260508T12Z_MSC_CAPS_SpecificHumidity_IsbL-0650_RLatLon0.03_PT027H.grib2 2026-05-08 18:15 1.5M
20260508T12Z_MSC_CAPS_SpecificHumidity_IsbL-0700_RLatLon0.03_PT027H.grib2 2026-05-08 18:15 1.3M
20260508T12Z_MSC_CAPS_SpecificHumidity_IsbL-0750_RLatLon0.03_PT027H.grib2 2026-05-08 18:15 1.5M
20260508T12Z_MSC_CAPS_SpecificHumidity_IsbL-0800_RLatLon0.03_PT027H.grib2 2026-05-08 18:15 1.6M
20260508T12Z_MSC_CAPS_SpecificHumidity_IsbL-0850_RLatLon0.03_PT027H.grib2 2026-05-08 18:15 1.8M
20260508T12Z_MSC_CAPS_SpecificHumidity_IsbL-0875_RLatLon0.03_PT027H.grib2 2026-05-08 18:15 1.8M
20260508T12Z_MSC_CAPS_SpecificHumidity_IsbL-0900_RLatLon0.03_PT027H.grib2 2026-05-08 18:15 1.9M
20260508T12Z_MSC_CAPS_SpecificHumidity_IsbL-0925_RLatLon0.03_PT027H.grib2 2026-05-08 18:15 2.0M
20260508T12Z_MSC_CAPS_SpecificHumidity_IsbL-0950_RLatLon0.03_PT027H.grib2 2026-05-08 18:15 2.0M
20260508T12Z_MSC_CAPS_SpecificHumidity_IsbL-0970_RLatLon0.03_PT027H.grib2 2026-05-08 18:15 2.0M
20260508T12Z_MSC_CAPS_SpecificHumidity_IsbL-0985_RLatLon0.03_PT027H.grib2 2026-05-08 18:15 2.0M
20260508T12Z_MSC_CAPS_SpecificHumidity_IsbL-1000_RLatLon0.03_PT027H.grib2 2026-05-08 18:15 2.1M
20260508T12Z_MSC_CAPS_SpecificHumidity_IsbL-1015_RLatLon0.03_PT027H.grib2 2026-05-08 18:15 2.1M
20260508T12Z_MSC_CAPS_SpecificHumidity_Sfc_RLatLon0.03_PT027H.grib2 2026-05-08 18:15 2.1M
20260508T12Z_MSC_CAPS_StormRelativeHelicity_Sfc_RLatLon0.03_PT027H.grib2 2026-05-08 18:15 3.2M
20260508T12Z_MSC_CAPS_Thickness_IsbL-1000to0500_RLatLon0.03_PT027H.grib2 2026-05-08 18:15 426K
20260508T12Z_MSC_CAPS_TotalCloudCover_Sfc_RLatLon0.03_PT027H.grib2 2026-05-08 18:15 3.6M
20260508T12Z_MSC_CAPS_TurboclineDepth_Sfc_RLatLon0.03_PT027H.nc 2026-05-08 18:12 16M
20260508T12Z_MSC_CAPS_UpwardLongwaveRadiationFlux_NTAtm_RLatLon0.03_PT027H.grib2 2026-05-08 18:15 2.9M
20260508T12Z_MSC_CAPS_UpwardShortwaveRadiationFlux_NTAtm_RLatLon0.03_PT027H.grib2 2026-05-08 18:15 2.6M
20260508T12Z_MSC_CAPS_VerticalVelocity_IsbL-0250_RLatLon0.03_PT027H.grib2 2026-05-08 18:15 919K
20260508T12Z_MSC_CAPS_VerticalVelocity_IsbL-0500_RLatLon0.03_PT027H.grib2 2026-05-08 18:15 1.2M
20260508T12Z_MSC_CAPS_VerticalVelocity_IsbL-0700_RLatLon0.03_PT027H.grib2 2026-05-08 18:15 1.3M
20260508T12Z_MSC_CAPS_VerticalVelocity_IsbL-0850_RLatLon0.03_PT027H.grib2 2026-05-08 18:15 1.5M
20260508T12Z_MSC_CAPS_VerticalVelocity_IsbL-1000_RLatLon0.03_PT027H.grib2 2026-05-08 18:15 1.3M
20260508T12Z_MSC_CAPS_WindDir_AGL-10m_RLatLon0.03_PT027H.grib2 2026-05-08 18:15 2.4M
20260508T12Z_MSC_CAPS_WindDir_AGL-120m_RLatLon0.03_PT027H.grib2 2026-05-08 18:15 1.3M
20260508T12Z_MSC_CAPS_WindDir_AGL-40m_RLatLon0.03_PT027H.grib2 2026-05-08 18:15 1.4M
20260508T12Z_MSC_CAPS_WindDir_AGL-80m_RLatLon0.03_PT027H.grib2 2026-05-08 18:15 1.3M
20260508T12Z_MSC_CAPS_WindDir_IsbL-0050_RLatLon0.03_PT027H.grib2 2026-05-08 18:15 1.0M
20260508T12Z_MSC_CAPS_WindDir_IsbL-0100_RLatLon0.03_PT027H.grib2 2026-05-08 18:15 1.0M
20260508T12Z_MSC_CAPS_WindDir_IsbL-0150_RLatLon0.03_PT027H.grib2 2026-05-08 18:15 1.1M
20260508T12Z_MSC_CAPS_WindDir_IsbL-0175_RLatLon0.03_PT027H.grib2 2026-05-08 18:15 1.1M
20260508T12Z_MSC_CAPS_WindDir_IsbL-0200_RLatLon0.03_PT027H.grib2 2026-05-08 18:15 1.2M
20260508T12Z_MSC_CAPS_WindDir_IsbL-0225_RLatLon0.03_PT027H.grib2 2026-05-08 18:15 1.1M
20260508T12Z_MSC_CAPS_WindDir_IsbL-0250_RLatLon0.03_PT027H.grib2 2026-05-08 18:15 1.1M
20260508T12Z_MSC_CAPS_WindDir_IsbL-0275_RLatLon0.03_PT027H.grib2 2026-05-08 18:15 1.1M
20260508T12Z_MSC_CAPS_WindDir_IsbL-0300_RLatLon0.03_PT027H.grib2 2026-05-08 18:15 1.1M
20260508T12Z_MSC_CAPS_WindDir_IsbL-0350_RLatLon0.03_PT027H.grib2 2026-05-08 18:15 1.1M
20260508T12Z_MSC_CAPS_WindDir_IsbL-0400_RLatLon0.03_PT027H.grib2 2026-05-08 18:15 1.1M
20260508T12Z_MSC_CAPS_WindDir_IsbL-0450_RLatLon0.03_PT027H.grib2 2026-05-08 18:15 1.2M
20260508T12Z_MSC_CAPS_WindDir_IsbL-0500_RLatLon0.03_PT027H.grib2 2026-05-08 18:15 1.2M
20260508T12Z_MSC_CAPS_WindDir_IsbL-0550_RLatLon0.03_PT027H.grib2 2026-05-08 18:15 1.2M
20260508T12Z_MSC_CAPS_WindDir_IsbL-0600_RLatLon0.03_PT027H.grib2 2026-05-08 18:15 1.2M
20260508T12Z_MSC_CAPS_WindDir_IsbL-0650_RLatLon0.03_PT027H.grib2 2026-05-08 18:15 1.3M
20260508T12Z_MSC_CAPS_WindDir_IsbL-0700_RLatLon0.03_PT027H.grib2 2026-05-08 18:15 1.4M
20260508T12Z_MSC_CAPS_WindDir_IsbL-0750_RLatLon0.03_PT027H.grib2 2026-05-08 18:15 1.5M
20260508T12Z_MSC_CAPS_WindDir_IsbL-0800_RLatLon0.03_PT027H.grib2 2026-05-08 18:15 1.6M
20260508T12Z_MSC_CAPS_WindDir_IsbL-0850_RLatLon0.03_PT027H.grib2 2026-05-08 18:15 1.7M
20260508T12Z_MSC_CAPS_WindDir_IsbL-0875_RLatLon0.03_PT027H.grib2 2026-05-08 18:15 1.8M
20260508T12Z_MSC_CAPS_WindDir_IsbL-0900_RLatLon0.03_PT027H.grib2 2026-05-08 18:15 1.9M
20260508T12Z_MSC_CAPS_WindDir_IsbL-0925_RLatLon0.03_PT027H.grib2 2026-05-08 18:15 2.0M
20260508T12Z_MSC_CAPS_WindDir_IsbL-0950_RLatLon0.03_PT027H.grib2 2026-05-08 18:15 2.1M
20260508T12Z_MSC_CAPS_WindDir_IsbL-0970_RLatLon0.03_PT027H.grib2 2026-05-08 18:15 2.1M
20260508T12Z_MSC_CAPS_WindDir_IsbL-0985_RLatLon0.03_PT027H.grib2 2026-05-08 18:15 2.2M
20260508T12Z_MSC_CAPS_WindDir_IsbL-1000_RLatLon0.03_PT027H.grib2 2026-05-08 18:15 2.3M
20260508T12Z_MSC_CAPS_WindDir_IsbL-1015_RLatLon0.03_PT027H.grib2 2026-05-08 18:15 2.3M
20260508T12Z_MSC_CAPS_WindGust-Max_AGL-10m_RLatLon0.03_PT027H.grib2 2026-05-08 18:15 2.6M
20260508T12Z_MSC_CAPS_WindGust-Min_AGL-10m_RLatLon0.03_PT027H.grib2 2026-05-08 18:15 2.5M
20260508T12Z_MSC_CAPS_WindGust_AGL-10m_RLatLon0.03_PT027H.grib2 2026-05-08 18:15 2.6M
20260508T12Z_MSC_CAPS_WindSpeed_AGL-10m_RLatLon0.03_PT027H.grib2 2026-05-08 18:15 2.1M
20260508T12Z_MSC_CAPS_WindSpeed_AGL-120m_RLatLon0.03_PT027H.grib2 2026-05-08 18:15 1.2M
20260508T12Z_MSC_CAPS_WindSpeed_AGL-40m_RLatLon0.03_PT027H.grib2 2026-05-08 18:15 1.6M
20260508T12Z_MSC_CAPS_WindSpeed_AGL-80m_RLatLon0.03_PT027H.grib2 2026-05-08 18:15 1.2M
20260508T12Z_MSC_CAPS_WindSpeed_IsbL-0050_RLatLon0.03_PT027H.grib2 2026-05-08 18:15 1.1M
20260508T12Z_MSC_CAPS_WindSpeed_IsbL-0100_RLatLon0.03_PT027H.grib2 2026-05-08 18:15 1.1M
20260508T12Z_MSC_CAPS_WindSpeed_IsbL-0150_RLatLon0.03_PT027H.grib2 2026-05-08 18:15 1.1M
20260508T12Z_MSC_CAPS_WindSpeed_IsbL-0175_RLatLon0.03_PT027H.grib2 2026-05-08 18:15 1.1M
20260508T12Z_MSC_CAPS_WindSpeed_IsbL-0200_RLatLon0.03_PT027H.grib2 2026-05-08 18:15 945K
20260508T12Z_MSC_CAPS_WindSpeed_IsbL-0225_RLatLon0.03_PT027H.grib2 2026-05-08 18:15 967K
20260508T12Z_MSC_CAPS_WindSpeed_IsbL-0250_RLatLon0.03_PT027H.grib2 2026-05-08 18:15 1.0M
20260508T12Z_MSC_CAPS_WindSpeed_IsbL-0275_RLatLon0.03_PT027H.grib2 2026-05-08 18:15 1.0M
20260508T12Z_MSC_CAPS_WindSpeed_IsbL-0300_RLatLon0.03_PT027H.grib2 2026-05-08 18:15 1.0M
20260508T12Z_MSC_CAPS_WindSpeed_IsbL-0350_RLatLon0.03_PT027H.grib2 2026-05-08 18:15 1.0M
20260508T12Z_MSC_CAPS_WindSpeed_IsbL-0400_RLatLon0.03_PT027H.grib2 2026-05-08 18:15 1.0M
20260508T12Z_MSC_CAPS_WindSpeed_IsbL-0450_RLatLon0.03_PT027H.grib2 2026-05-08 18:15 1.3M
20260508T12Z_MSC_CAPS_WindSpeed_IsbL-0500_RLatLon0.03_PT027H.grib2 2026-05-08 18:15 1.4M
20260508T12Z_MSC_CAPS_WindSpeed_IsbL-0550_RLatLon0.03_PT027H.grib2 2026-05-08 18:15 1.5M
20260508T12Z_MSC_CAPS_WindSpeed_IsbL-0600_RLatLon0.03_PT027H.grib2 2026-05-08 18:15 1.4M
20260508T12Z_MSC_CAPS_WindSpeed_IsbL-0650_RLatLon0.03_PT027H.grib2 2026-05-08 18:15 1.5M
20260508T12Z_MSC_CAPS_WindSpeed_IsbL-0700_RLatLon0.03_PT027H.grib2 2026-05-08 18:15 1.5M
20260508T12Z_MSC_CAPS_WindSpeed_IsbL-0750_RLatLon0.03_PT027H.grib2 2026-05-08 18:15 1.6M
20260508T12Z_MSC_CAPS_WindSpeed_IsbL-0800_RLatLon0.03_PT027H.grib2 2026-05-08 18:15 1.7M
20260508T12Z_MSC_CAPS_WindSpeed_IsbL-0850_RLatLon0.03_PT027H.grib2 2026-05-08 18:15 1.8M
20260508T12Z_MSC_CAPS_WindSpeed_IsbL-0875_RLatLon0.03_PT027H.grib2 2026-05-08 18:15 1.8M
20260508T12Z_MSC_CAPS_WindSpeed_IsbL-0900_RLatLon0.03_PT027H.grib2 2026-05-08 18:15 1.9M
20260508T12Z_MSC_CAPS_WindSpeed_IsbL-0925_RLatLon0.03_PT027H.grib2 2026-05-08 18:15 1.9M
20260508T12Z_MSC_CAPS_WindSpeed_IsbL-0950_RLatLon0.03_PT027H.grib2 2026-05-08 18:15 2.0M
20260508T12Z_MSC_CAPS_WindSpeed_IsbL-0970_RLatLon0.03_PT027H.grib2 2026-05-08 18:15 2.0M
20260508T12Z_MSC_CAPS_WindSpeed_IsbL-0985_RLatLon0.03_PT027H.grib2 2026-05-08 18:15 2.0M
20260508T12Z_MSC_CAPS_WindSpeed_IsbL-1000_RLatLon0.03_PT027H.grib2 2026-05-08 18:15 2.1M
20260508T12Z_MSC_CAPS_WindSpeed_IsbL-1015_RLatLon0.03_PT027H.grib2 2026-05-08 18:15 2.1M
20260508T12Z_MSC_CAPS_WindU_AGL-10m_RLatLon0.03_PT027H.grib2 2026-05-08 18:15 2.0M
20260508T12Z_MSC_CAPS_WindU_AGL-120m_RLatLon0.03_PT027H.grib2 2026-05-08 18:15 1.2M
20260508T12Z_MSC_CAPS_WindU_AGL-40m_RLatLon0.03_PT027H.grib2 2026-05-08 18:15 1.2M
20260508T12Z_MSC_CAPS_WindU_AGL-80m_RLatLon0.03_PT027H.grib2 2026-05-08 18:15 1.2M
20260508T12Z_MSC_CAPS_WindU_IsbL-0050_RLatLon0.03_PT027H.grib2 2026-05-08 18:15 756K
20260508T12Z_MSC_CAPS_WindU_IsbL-0100_RLatLon0.03_PT027H.grib2 2026-05-08 18:15 786K
20260508T12Z_MSC_CAPS_WindU_IsbL-0150_RLatLon0.03_PT027H.grib2 2026-05-08 18:15 705K
20260508T12Z_MSC_CAPS_WindU_IsbL-0175_RLatLon0.03_PT027H.grib2 2026-05-08 18:15 854K
20260508T12Z_MSC_CAPS_WindU_IsbL-0200_RLatLon0.03_PT027H.grib2 2026-05-08 18:15 881K
20260508T12Z_MSC_CAPS_WindU_IsbL-0225_RLatLon0.03_PT027H.grib2 2026-05-08 18:15 695K
20260508T12Z_MSC_CAPS_WindU_IsbL-0250_RLatLon0.03_PT027H.grib2 2026-05-08 18:15 716K
20260508T12Z_MSC_CAPS_WindU_IsbL-0275_RLatLon0.03_PT027H.grib2 2026-05-08 18:15 723K
20260508T12Z_MSC_CAPS_WindU_IsbL-0300_RLatLon0.03_PT027H.grib2 2026-05-08 18:15 727K
20260508T12Z_MSC_CAPS_WindU_IsbL-0350_RLatLon0.03_PT027H.grib2 2026-05-08 18:15 733K
20260508T12Z_MSC_CAPS_WindU_IsbL-0400_RLatLon0.03_PT027H.grib2 2026-05-08 18:15 953K
20260508T12Z_MSC_CAPS_WindU_IsbL-0450_RLatLon0.03_PT027H.grib2 2026-05-08 18:15 971K
20260508T12Z_MSC_CAPS_WindU_IsbL-0500_RLatLon0.03_PT027H.grib2 2026-05-08 18:15 1.0M
20260508T12Z_MSC_CAPS_WindU_IsbL-0550_RLatLon0.03_PT027H.grib2 2026-05-08 18:15 1.0M
20260508T12Z_MSC_CAPS_WindU_IsbL-0600_RLatLon0.03_PT027H.grib2 2026-05-08 18:15 953K
20260508T12Z_MSC_CAPS_WindU_IsbL-0650_RLatLon0.03_PT027H.grib2 2026-05-08 18:15 1.0M
20260508T12Z_MSC_CAPS_WindU_IsbL-0700_RLatLon0.03_PT027H.grib2 2026-05-08 18:15 1.0M
20260508T12Z_MSC_CAPS_WindU_IsbL-0750_RLatLon0.03_PT027H.grib2 2026-05-08 18:15 1.1M
20260508T12Z_MSC_CAPS_WindU_IsbL-0800_RLatLon0.03_PT027H.grib2 2026-05-08 18:15 1.2M
20260508T12Z_MSC_CAPS_WindU_IsbL-0850_RLatLon0.03_PT027H.grib2 2026-05-08 18:15 1.2M
20260508T12Z_MSC_CAPS_WindU_IsbL-0875_RLatLon0.03_PT027H.grib2 2026-05-08 18:15 1.3M
20260508T12Z_MSC_CAPS_WindU_IsbL-0900_RLatLon0.03_PT027H.grib2 2026-05-08 18:15 1.3M
20260508T12Z_MSC_CAPS_WindU_IsbL-0925_RLatLon0.03_PT027H.grib2 2026-05-08 18:15 1.3M
20260508T12Z_MSC_CAPS_WindU_IsbL-0950_RLatLon0.03_PT027H.grib2 2026-05-08 18:15 1.4M
20260508T12Z_MSC_CAPS_WindU_IsbL-0970_RLatLon0.03_PT027H.grib2 2026-05-08 18:15 1.8M
20260508T12Z_MSC_CAPS_WindU_IsbL-0985_RLatLon0.03_PT027H.grib2 2026-05-08 18:15 1.8M
20260508T12Z_MSC_CAPS_WindU_IsbL-1000_RLatLon0.03_PT027H.grib2 2026-05-08 18:15 1.8M
20260508T12Z_MSC_CAPS_WindU_IsbL-1015_RLatLon0.03_PT027H.grib2 2026-05-08 18:15 2.0M
20260508T12Z_MSC_CAPS_WindV_AGL-10m_RLatLon0.03_PT027H.grib2 2026-05-08 18:15 2.0M
20260508T12Z_MSC_CAPS_WindV_AGL-120m_RLatLon0.03_PT027H.grib2 2026-05-08 18:15 1.2M
20260508T12Z_MSC_CAPS_WindV_AGL-40m_RLatLon0.03_PT027H.grib2 2026-05-08 18:15 1.2M
20260508T12Z_MSC_CAPS_WindV_AGL-80m_RLatLon0.03_PT027H.grib2 2026-05-08 18:15 1.2M
20260508T12Z_MSC_CAPS_WindV_IsbL-0050_RLatLon0.03_PT027H.grib2 2026-05-08 18:15 762K
20260508T12Z_MSC_CAPS_WindV_IsbL-0100_RLatLon0.03_PT027H.grib2 2026-05-08 18:15 788K
20260508T12Z_MSC_CAPS_WindV_IsbL-0150_RLatLon0.03_PT027H.grib2 2026-05-08 18:15 915K
20260508T12Z_MSC_CAPS_WindV_IsbL-0175_RLatLon0.03_PT027H.grib2 2026-05-08 18:15 727K
20260508T12Z_MSC_CAPS_WindV_IsbL-0200_RLatLon0.03_PT027H.grib2 2026-05-08 18:15 879K
20260508T12Z_MSC_CAPS_WindV_IsbL-0225_RLatLon0.03_PT027H.grib2 2026-05-08 18:15 904K
20260508T12Z_MSC_CAPS_WindV_IsbL-0250_RLatLon0.03_PT027H.grib2 2026-05-08 18:15 923K
20260508T12Z_MSC_CAPS_WindV_IsbL-0275_RLatLon0.03_PT027H.grib2 2026-05-08 18:15 928K
20260508T12Z_MSC_CAPS_WindV_IsbL-0300_RLatLon0.03_PT027H.grib2 2026-05-08 18:15 934K
20260508T12Z_MSC_CAPS_WindV_IsbL-0350_RLatLon0.03_PT027H.grib2 2026-05-08 18:15 942K
20260508T12Z_MSC_CAPS_WindV_IsbL-0400_RLatLon0.03_PT027H.grib2 2026-05-08 18:15 947K
20260508T12Z_MSC_CAPS_WindV_IsbL-0450_RLatLon0.03_PT027H.grib2 2026-05-08 18:15 965K
20260508T12Z_MSC_CAPS_WindV_IsbL-0500_RLatLon0.03_PT027H.grib2 2026-05-08 18:15 1.0M
20260508T12Z_MSC_CAPS_WindV_IsbL-0550_RLatLon0.03_PT027H.grib2 2026-05-08 18:15 912K
20260508T12Z_MSC_CAPS_WindV_IsbL-0600_RLatLon0.03_PT027H.grib2 2026-05-08 18:15 944K
20260508T12Z_MSC_CAPS_WindV_IsbL-0650_RLatLon0.03_PT027H.grib2 2026-05-08 18:15 1.0M
20260508T12Z_MSC_CAPS_WindV_IsbL-0700_RLatLon0.03_PT027H.grib2 2026-05-08 18:15 1.3M
20260508T12Z_MSC_CAPS_WindV_IsbL-0750_RLatLon0.03_PT027H.grib2 2026-05-08 18:15 1.4M
20260508T12Z_MSC_CAPS_WindV_IsbL-0800_RLatLon0.03_PT027H.grib2 2026-05-08 18:15 1.2M
20260508T12Z_MSC_CAPS_WindV_IsbL-0850_RLatLon0.03_PT027H.grib2 2026-05-08 18:15 1.6M
20260508T12Z_MSC_CAPS_WindV_IsbL-0875_RLatLon0.03_PT027H.grib2 2026-05-08 18:15 1.6M
20260508T12Z_MSC_CAPS_WindV_IsbL-0900_RLatLon0.03_PT027H.grib2 2026-05-08 18:15 1.6M
20260508T12Z_MSC_CAPS_WindV_IsbL-0925_RLatLon0.03_PT027H.grib2 2026-05-08 18:15 1.3M
20260508T12Z_MSC_CAPS_WindV_IsbL-0950_RLatLon0.03_PT027H.grib2 2026-05-08 18:15 1.7M
20260508T12Z_MSC_CAPS_WindV_IsbL-0970_RLatLon0.03_PT027H.grib2 2026-05-08 18:15 1.8M
20260508T12Z_MSC_CAPS_WindV_IsbL-0985_RLatLon0.03_PT027H.grib2 2026-05-08 18:15 1.9M
20260508T12Z_MSC_CAPS_WindV_IsbL-1000_RLatLon0.03_PT027H.grib2 2026-05-08 18:15 2.0M
20260508T12Z_MSC_CAPS_WindV_IsbL-1015_RLatLon0.03_PT027H.grib2 2026-05-08 18:15 2.0M